TimeEDT,TemperatureF,Dew PointF,Humidity,Sea Level PressureIn,VisibilityMPH,Wind Direction,Wind SpeedMPH,Gust SpeedMPH,PrecipitationIn,Events,Conditions,WindDirDegrees,DateUTC
12:21 AM,66.2,64.4,94,29.98,10.0,North,12.7,27.6,N/A,Thunderstorm,Scattered Clouds,360,2013-06-26 04:21:00
12:37 AM,68.0,64.4,88,29.99,10.0,North,11.5,-,N/A,Thunderstorm,Overcast,10,2013-06-26 04:37:00
12:53 AM,66.9,64.0,90,30.00,9.0,North,16.1,29.9,0.01,Rain-Thunderstorm,Light Rain,350,2013-06-26 04:53:00
1:02 AM,66.2,64.4,94,29.99,1.8,North,16.1,29.9,0.19,Rain-Thunderstorm,Heavy Thunderstorms and Rain,350,2013-06-26 05:02:00
1:10 AM,66.2,62.6,88,29.97,3.0,NNE,6.9,-,0.21,Rain-Thunderstorm,Light Thunderstorms and Rain,30,2013-06-26 05:10:00
1:17 AM,66.2,62.6,88,29.97,10.0,Calm,Calm,-,0.21,Rain-Thunderstorm,Light Thunderstorms and Rain,0,2013-06-26 05:17:00
1:53 AM,66.0,64.0,93,29.96,7.0,NNW,8.1,-,0.24,Rain-Thunderstorm,Light Thunderstorms and Rain,330,2013-06-26 05:53:00
2:05 AM,66.2,64.4,94,29.98,10.0,NNW,11.5,23.0,0.00,Rain-Thunderstorm,Light Thunderstorms and Rain,330,2013-06-26 06:05:00
2:16 AM,66.2,64.4,94,29.98,2.5,West,9.2,26.5,0.10,Rain-Thunderstorm,Heavy Thunderstorms and Rain,270,2013-06-26 06:16:00
2:20 AM,66.2,64.4,94,29.96,1.5,Variable,5.8,-,0.17,Rain-Thunderstorm,Heavy Thunderstorms and Rain,0,2013-06-26 06:20:00
2:28 AM,66.2,64.4,94,29.96,2.0,WNW,8.1,-,0.20,Rain-Thunderstorm,Thunderstorms and Rain,300,2013-06-26 06:28:00
2:48 AM,64.4,64.4,100,29.98,4.0,NW,10.4,-,0.31,Rain-Thunderstorm,Thunderstorms and Rain,320,2013-06-26 06:48:00
2:53 AM,64.9,64.0,97,29.95,2.5,NNW,5.8,-,0.39,Rain-Thunderstorm,Heavy Thunderstorms and Rain,340,2013-06-26 06:53:00
3:01 AM,64.4,64.4,100,29.97,1.0,Variable,3.5,-,0.15,Rain-Thunderstorm,Heavy Thunderstorms and Rain,0,2013-06-26 07:01:00
3:04 AM,64.4,64.4,100,29.97,0.8,SE,4.6,-,0.24,Rain-Thunderstorm,Heavy Thunderstorms and Rain,140,2013-06-26 07:04:00
3:17 AM,64.4,64.4,100,29.95,1.5,NE,6.9,-,0.44,Rain-Thunderstorm,Heavy Thunderstorms and Rain,40,2013-06-26 07:17:00
3:23 AM,64.4,64.4,100,29.97,3.0,NW,9.2,-,0.45,Rain-Thunderstorm,Light Thunderstorms and Rain,310,2013-06-26 07:23:00
3:29 AM,66.2,64.4,94,29.99,2.5,West,9.2,-,0.52,Rain-Thunderstorm,Thunderstorms and Rain,270,2013-06-26 07:29:00
3:36 AM,64.4,64.4,100,29.97,0.8,NNW,5.8,-,0.71,Rain-Thunderstorm,Heavy Thunderstorms and Rain,340,2013-06-26 07:36:00
3:53 AM,64.9,64.9,100,29.95,0.8,SSE,5.8,-,0.97,Rain-Thunderstorm,Heavy Thunderstorms and Rain,160,2013-06-26 07:53:00
4:06 AM,64.4,64.4,100,29.95,1.8,Calm,Calm,-,0.06,Rain-Thunderstorm,Thunderstorms and Rain,0,2013-06-26 08:06:00
4:32 AM,64.4,64.4,100,29.96,2.5,South,4.6,-,0.09,Rain-Thunderstorm,Light Rain,170,2013-06-26 08:32:00
4:40 AM,64.4,64.4,100,29.95,0.8,ESE,3.5,-,0.13,Rain-Thunderstorm,Heavy Thunderstorms and Rain,120,2013-06-26 08:40:00
4:51 AM,64.4,64.4,100,29.96,1.5,ESE,5.8,-,0.14,Rain-Thunderstorm,Light Thunderstorms and Rain,110,2013-06-26 08:51:00
4:53 AM,64.9,64.9,100,29.94,1.2,SE,3.5,-,0.14,Rain-Thunderstorm,Light Thunderstorms and Rain,130,2013-06-26 08:53:00
5:04 AM,64.4,64.4,100,29.96,0.8,NNW,5.8,-,0.01,Rain-Thunderstorm,Light Thunderstorms and Rain,340,2013-06-26 09:04:00
5:12 AM,64.4,64.4,100,29.97,1.5,Calm,Calm,-,0.03,Rain-Thunderstorm,Light Thunderstorms and Rain,0,2013-06-26 09:12:00
5:17 AM,64.4,64.4,100,29.97,0.5,West,3.5,-,0.06,Fog-Rain-Thunderstorm,Thunderstorms and Rain,270,2013-06-26 09:17:00
5:37 AM,64.4,64.4,100,29.94,0.8,SE,6.9,-,0.10,Rain-Thunderstorm,Light Rain,140,2013-06-26 09:37:00
5:50 AM,64.4,64.4,100,29.96,2.0,SSE,6.9,-,0.12,Rain-Thunderstorm,Light Rain,150,2013-06-26 09:50:00
5:53 AM,64.9,64.9,100,29.94,4.0,SE,5.8,-,0.12,Rain,Light Rain,130,2013-06-26 09:53:00
6:00 AM,64.4,64.4,100,29.96,6.0,ESE,3.5,-,0.00,Rain,Light Rain,120,2013-06-26 10:00:00
6:53 AM,66.0,64.9,96,29.90,10.0,SE,6.9,-,0.02,,Partly Cloudy,140,2013-06-26 10:53:00
7:12 AM,66.2,64.4,94,29.91,10.0,SSE,6.9,-,N/A,,Partly Cloudy,150,2013-06-26 11:12:00
7:40 AM,66.2,64.4,94,29.93,10.0,South,6.9,-,N/A,,Mostly Cloudy,190,2013-06-26 11:40:00
7:53 AM,66.0,64.9,96,29.91,10.0,South,4.6,-,N/A,,Overcast,170,2013-06-26 11:53:00
8:40 AM,68.0,66.2,94,29.93,10.0,South,4.6,-,N/A,,Overcast,190,2013-06-26 12:40:00
8:53 AM,68.0,66.0,93,29.91,10.0,South,6.9,-,N/A,,Mostly Cloudy,190,2013-06-26 12:53:00
9:53 AM,72.0,68.0,87,29.91,10.0,SSW,4.6,-,N/A,,Partly Cloudy,210,2013-06-26 13:53:00
10:21 AM,71.6,68.0,88,29.94,10.0,Variable,6.9,-,N/A,,Mostly Cloudy,0,2013-06-26 14:21:00
10:53 AM,73.9,68.0,82,29.93,10.0,SW,5.8,-,N/A,,Mostly Cloudy,230,2013-06-26 14:53:00
11:06 AM,75.2,69.8,83,29.93,10.0,SW,5.8,-,N/A,,Scattered Clouds,230,2013-06-26 15:06:00
11:14 AM,75.2,68.0,78,29.93,10.0,Variable,3.5,-,N/A,,Mostly Cloudy,0,2013-06-26 15:14:00
11:53 AM,77.0,66.0,69,29.93,10.0,West,8.1,-,N/A,,Mostly Cloudy,270,2013-06-26 15:53:00
12:53 PM,75.9,66.9,74,29.93,10.0,WSW,9.2,-,N/A,,Overcast,240,2013-06-26 16:53:00
1:53 PM,78.1,69.1,74,29.91,10.0,Variable,4.6,-,0.00,,Partly Cloudy,0,2013-06-26 17:53:00
2:53 PM,75.9,66.9,74,29.91,10.0,West,5.8,-,N/A,,Overcast,260,2013-06-26 18:53:00
3:05 PM,71.6,68.0,88,29.93,1.8,West,5.8,-,0.04,Rain,Heavy Rain,270,2013-06-26 19:05:00
3:14 PM,71.6,69.8,94,29.92,0.5,West,6.9,-,0.20,Fog-Rain,Heavy Rain,280,2013-06-26 19:14:00
3:23 PM,69.8,68.0,94,29.92,0.8,Calm,Calm,-,0.26,Rain,Light Rain,0,2013-06-26 19:23:00
3:26 PM,71.6,69.8,94,29.92,2.5,Variable,3.5,-,0.26,Rain,Light Rain,0,2013-06-26 19:26:00
3:30 PM,73.4,69.8,88,29.92,9.0,Calm,Calm,-,0.26,Rain,Light Rain,0,2013-06-26 19:30:00
3:53 PM,75.9,70.0,82,29.90,10.0,Variable,4.6,-,0.26,,Scattered Clouds,0,2013-06-26 19:53:00
4:53 PM,78.1,69.1,74,29.88,10.0,West,4.6,-,0.00,,Clear,280,2013-06-26 20:53:00
5:53 PM,78.1,68.0,71,29.85,10.0,SW,4.6,-,N/A,,Clear,220,2013-06-26 21:53:00
6:53 PM,77.0,68.0,74,29.85,10.0,SW,4.6,-,N/A,,Clear,230,2013-06-26 22:53:00
7:53 PM,75.9,69.1,79,29.85,10.0,South,3.5,-,N/A,,Clear,170,2013-06-26 23:53:00
8:53 PM,73.9,70.0,87,29.85,10.0,SE,4.6,-,N/A,,Partly Cloudy,130,2013-06-27 00:53:00
9:53 PM,73.9,68.0,82,29.85,10.0,SSE,6.9,-,N/A,,Clear,160,2013-06-27 01:53:00
10:53 PM,73.0,68.0,84,29.84,10.0,South,6.9,-,N/A,,Clear,170,2013-06-27 02:53:00
11:53 PM,71.1,66.9,87,29.81,10.0,ESE,3.5,-,N/A,,Clear,120,2013-06-27 03:53:00